Location: Huntsville
(41.2590°N, 111.7678°W)
Time: 21:01:29
(UTC+00:00)

Explorer 7 - Pass Details

Date: 21 June 2021
Orbit: 484 x 676 km, 50.3° (Epoch: 30 July)

Event Time Altitude Azimuth Distance (km) Brightness Sun altitude
Rises 08:01:14 0° 300° (WNW) 2,998 10.9 -24.9°
Reaches altitude 10° 08:03:50 10° 310° (NW) 2,063 10.1 -24.8°
Maximum altitude 08:08:08 33° 15° (NNE) 1,064 8.8 -24.7°
Drops below altitude 10° 08:12:15 10° 80° (E) 1,963 9.9 -24.5°
Sets 08:14:40 0° 90° (E) 2,830 10.6 -24.4°
